Time,TemperatureF,DewpointF,PressureIn,WindDirection,WindDirectionDegrees,WindSpeedMPH,WindSpeedGustMPH,Humidity,HourlyPrecipIn,Conditions,Clouds,dailyrainin,SoftwareType,DateUTC
2013-04-05 00:00:00,43.0,35.3,30.14,NNW,338,0.0,0.0,74,0.00,,,0.04,Wunderground v.1.15,2013-04-05 05:00:00,
2013-04-05 00:10:00,42.8,34.7,30.14,NNW,338,0.0,-999.0,73,0.00,,,0.00,Wunderground v.1.15,2013-04-05 05:10:00,
2013-04-05 00:15:00,42.4,34.0,30.14,NNW,338,0.0,-999.0,72,0.00,,,0.00,Wunderground v.1.15,2013-04-05 05:15:00,
2013-04-05 00:20:00,42.2,34.5,30.14,NNW,338,0.0,-999.0,74,0.00,,,0.00,Wunderground v.1.15,2013-04-05 05:20:00,
2013-04-05 00:30:00,41.7,33.7,30.14,NNW,338,0.0,0.0,73,0.00,,,0.00,Wunderground v.1.15,2013-04-05 05:30:00,
2013-04-05 00:35:00,41.5,33.8,30.14,NNW,339,0.0,0.0,74,0.00,,,0.00,Wunderground v.1.15,2013-04-05 05:35:00,
2013-04-05 00:40:00,41.3,33.6,30.14,NNW,338,0.0,-999.0,74,0.00,,,0.00,Wunderground v.1.15,2013-04-05 05:40:00,
2013-04-05 00:45:00,40.9,33.6,30.14,NNW,339,0.0,-999.0,75,0.00,,,0.00,Wunderground v.1.15,2013-04-05 05:45:00,
2013-04-05 00:50:00,41.3,34.0,30.14,NNW,338,0.0,-999.0,75,0.00,,,0.00,Wunderground v.1.15,2013-04-05 05:50:00,
2013-04-05 00:55:00,42.0,34.0,30.14,NNW,338,0.0,-999.0,73,0.00,,,0.00,Wunderground v.1.15,2013-04-05 05:55:00,
2013-04-05 01:05:00,42.4,34.0,30.14,NNW,338,0.0,0.0,72,0.00,,,0.00,Wunderground v.1.15,2013-04-05 06:05:00,
2013-04-05 01:10:00,42.2,34.5,30.14,NNW,339,0.0,0.0,74,0.00,,,0.00,Wunderground v.1.15,2013-04-05 06:10:00,
2013-04-05 01:15:00,41.7,34.4,30.14,NNW,340,0.0,-999.0,75,0.00,,,0.00,Wunderground v.1.15,2013-04-05 06:15:00,
2013-04-05 01:25:00,40.4,34.4,30.14,ENE,62,0.0,0.0,79,0.00,,,0.00,Wunderground v.1.15,2013-04-05 06:25:00,
2013-04-05 01:35:00,39.6,33.9,30.14,ENE,62,0.0,-999.0,80,0.00,,,0.00,Wunderground v.1.15,2013-04-05 06:35:00,
2013-04-05 01:45:00,39.5,33.5,30.14,ENE,62,0.0,0.0,79,0.00,,,0.00,Wunderground v.1.15,2013-04-05 06:45:00,
2013-04-05 01:50:00,39.5,33.8,30.14,ENE,63,0.0,0.0,80,0.00,,,0.00,Wunderground v.1.15,2013-04-05 06:50:00,
2013-04-05 01:55:00,40.0,34.3,30.14,ENE,63,0.0,0.0,80,0.00,,,0.00,Wunderground v.1.15,2013-04-05 06:55:00,
2013-04-05 02:00:00,40.3,34.0,30.14,ENE,62,0.0,0.0,78,0.00,,,0.00,Wunderground v.1.15,2013-04-05 07:00:00,
2013-04-05 02:10:00,40.8,34.1,30.14,WNW,285,0.0,-999.0,77,0.00,,,0.00,Wunderground v.1.15,2013-04-05 07:10:00,
2013-04-05 02:15:00,40.0,33.7,30.14,WNW,285,1.0,-999.0,78,0.00,,,0.00,Wunderground v.1.15,2013-04-05 07:15:00,
2013-04-05 02:25:00,40.0,33.7,30.14,WNW,285,0.0,0.0,78,0.00,,,0.00,Wunderground v.1.15,2013-04-05 07:25:00,
2013-04-05 02:30:00,40.6,34.0,30.14,WNW,285,0.0,0.0,77,0.00,,,0.00,Wunderground v.1.15,2013-04-05 07:30:00,
2013-04-05 02:35:00,40.5,33.9,30.14,WNW,285,0.0,0.0,77,0.00,,,0.00,Wunderground v.1.15,2013-04-05 07:35:00,
2013-04-05 02:40:00,40.3,33.7,30.14,WNW,285,0.0,-999.0,77,0.00,,,0.00,Wunderground v.1.15,2013-04-05 07:40:00,
2013-04-05 02:45:00,39.8,33.5,30.14,WNW,285,0.0,-999.0,78,0.00,,,0.00,Wunderground v.1.15,2013-04-05 07:45:00,
2013-04-05 02:50:00,39.9,33.9,30.14,WNW,290,0.0,-999.0,79,0.00,,,0.00,Wunderground v.1.15,2013-04-05 07:50:00,
2013-04-05 03:00:00,39.3,33.0,30.14,WNW,290,0.0,0.0,78,0.00,,,0.00,Wunderground v.1.15,2013-04-05 08:00:00,
2013-04-05 03:10:00,38.2,33.2,30.14,WNW,290,0.0,0.0,82,0.00,,,0.00,Wunderground v.1.15,2013-04-05 08:10:00,
2013-04-05 03:15:00,37.9,33.2,30.14,WNW,290,0.0,0.0,83,0.00,,,0.00,Wunderground v.1.15,2013-04-05 08:15:00,
2013-04-05 03:20:00,37.3,32.6,30.14,WNW,290,0.0,0.0,83,0.00,,,0.00,Wunderground v.1.15,2013-04-05 08:20:00,
2013-04-05 03:30:00,36.7,32.3,30.14,WNW,290,0.0,0.0,84,0.00,,,0.00,Wunderground v.1.15,2013-04-05 08:30:00,
2013-04-05 03:35:00,36.5,32.4,30.14,WNW,290,0.0,0.0,85,0.00,,,0.00,Wunderground v.1.15,2013-04-05 08:35:00,
2013-04-05 03:40:00,36.3,32.2,30.14,WNW,290,0.0,-999.0,85,0.00,,,0.00,Wunderground v.1.15,2013-04-05 08:40:00,
2013-04-05 03:45:00,36.4,32.6,30.14,WNW,290,0.0,0.0,86,0.00,,,0.00,Wunderground v.1.15,2013-04-05 08:45:00,
2013-04-05 03:50:00,36.4,32.6,30.14,WNW,290,0.0,0.0,86,0.00,,,0.00,Wunderground v.1.15,2013-04-05 08:50:00,
2013-04-05 03:55:00,36.2,32.4,30.14,WNW,290,0.0,0.0,86,0.00,,,0.00,Wunderground v.1.15,2013-04-05 08:55:00,
2013-04-05 04:00:00,36.2,32.4,30.14,WNW,290,0.0,0.0,86,0.00,,,0.00,Wunderground v.1.15,2013-04-05 09:00:00,
2013-04-05 04:10:00,36.5,32.7,30.15,WNW,290,0.0,2.0,86,0.00,,,0.00,Wunderground v.1.15,2013-04-05 09:10:00,
2013-04-05 04:15:00,36.3,32.2,30.15,West,269,0.0,2.0,85,0.00,,,0.00,Wunderground v.1.15,2013-04-05 09:15:00,
2013-04-05 04:20:00,35.2,31.4,30.15,West,276,1.0,1.0,86,0.00,,,0.00,Wunderground v.1.15,2013-04-05 09:20:00,
2013-04-05 04:25:00,34.7,31.2,30.15,West,278,1.0,1.0,87,0.00,,,0.00,Wunderground v.1.15,2013-04-05 09:25:00,
2013-04-05 04:35:00,34.6,32.2,30.15,West,277,0.0,0.0,91,0.00,,,0.00,Wunderground v.1.15,2013-04-05 09:35:00,
2013-04-05 04:40:00,34.8,32.4,30.15,West,277,0.0,0.0,91,0.00,,,0.00,Wunderground v.1.15,2013-04-05 09:40:00,
2013-04-05 04:45:00,35.2,33.1,30.15,West,277,0.0,0.0,92,0.00,,,0.00,Wunderground v.1.15,2013-04-05 09:45:00,
2013-04-05 04:50:00,35.4,33.0,30.16,West,277,0.0,0.0,91,0.00,,,0.00,Wunderground v.1.15,2013-04-05 09:50:00,
2013-04-05 04:55:00,34.7,31.8,30.16,West,277,0.0,-999.0,89,0.00,,,0.00,Wunderground v.1.15,2013-04-05 09:55:00,
2013-04-05 05:05:00,33.9,31.3,30.16,West,277,0.0,0.0,90,0.00,,,0.00,Wunderground v.1.15,2013-04-05 10:05:00,
2013-04-05 05:10:00,33.7,31.1,30.16,North,359,0.0,0.0,90,0.00,,,0.00,Wunderground v.1.15,2013-04-05 10:10:00,
2013-04-05 05:15:00,33.5,31.2,30.16,NNE,18,0.0,0.0,91,0.00,,,0.00,Wunderground v.1.15,2013-04-05 10:15:00,
2013-04-05 05:20:00,33.4,31.1,30.16,NNE,18,0.0,0.0,91,0.00,,,0.00,Wunderground v.1.15,2013-04-05 10:20:00,
2013-04-05 05:25:00,33.3,31.0,30.15,NNE,18,0.0,0.0,91,0.00,,,0.00,Wunderground v.1.15,2013-04-05 10:25:00,
2013-04-05 05:30:00,33.5,31.4,30.15,ENE,64,0.0,0.0,92,0.00,,,0.00,Wunderground v.1.15,2013-04-05 10:30:00,
2013-04-05 05:40:00,34.0,31.6,30.15,East,85,0.0,0.0,91,0.00,,,0.00,Wunderground v.1.15,2013-04-05 10:40:00,
2013-04-05 05:50:00,34.4,32.0,30.16,East,85,0.0,-999.0,91,0.00,,,0.00,Wunderground v.1.15,2013-04-05 10:50:00,
2013-04-05 05:55:00,34.7,32.1,30.16,East,85,0.0,-999.0,90,0.00,,,0.00,Wunderground v.1.15,2013-04-05 10:55:00,
2013-04-05 06:05:00,35.6,32.7,30.15,East,85,0.0,-999.0,89,0.00,,,0.00,Wunderground v.1.15,2013-04-05 11:05:00,
2013-04-05 06:15:00,36.5,32.7,30.16,East,85,0.0,0.0,86,0.00,,,0.00,Wunderground v.1.15,2013-04-05 11:15:00,
2013-04-05 06:20:00,36.7,32.6,30.16,East,85,0.0,-999.0,85,0.00,,,0.00,Wunderground v.1.15,2013-04-05 11:20:00,
2013-04-05 06:25:00,36.9,32.5,30.17,East,85,0.0,-999.0,84,0.00,,,0.00,Wunderground v.1.15,2013-04-05 11:25:00,
2013-04-05 06:30:00,37.3,32.3,30.17,WNW,300,0.0,-999.0,82,0.00,,,0.00,Wunderground v.1.15,2013-04-05 11:30:00,
2013-04-05 06:40:00,34.2,30.2,30.17,WNW,284,0.0,-999.0,85,0.00,,,0.00,Wunderground v.1.15,2013-04-05 11:40:00,
2013-04-05 06:50:00,33.8,30.9,30.17,WNW,285,0.0,0.0,89,0.00,,,0.00,Wunderground v.1.15,2013-04-05 11:50:00,
2013-04-05 06:55:00,33.4,30.2,30.18,West,271,0.0,0.0,88,0.00,,,0.00,Wunderground v.1.15,2013-04-05 11:55:00,
2013-04-05 07:00:00,33.1,30.2,30.18,West,269,0.0,0.0,89,0.00,,,0.00,Wunderground v.1.15,2013-04-05 12:00:00,
2013-04-05 07:10:00,33.1,30.8,30.18,West,268,0.0,0.0,91,0.00,,,0.00,Wunderground v.1.15,2013-04-05 12:10:00,
2013-04-05 07:20:00,33.6,31.0,30.19,West,271,0.0,1.0,90,0.00,,,0.00,Wunderground v.1.15,2013-04-05 12:20:00,
2013-04-05 07:25:00,33.6,31.3,30.19,WSW,238,1.0,1.0,91,0.00,,,0.00,Wunderground v.1.15,2013-04-05 12:25:00,
2013-04-05 07:35:00,34.7,32.3,30.19,SSW,201,0.0,-999.0,91,0.00,,,0.00,Wunderground v.1.15,2013-04-05 12:35:00,
2013-04-05 07:40:00,35.1,32.5,30.19,SSW,194,0.0,-999.0,90,0.00,,,0.00,Wunderground v.1.15,2013-04-05 12:40:00,
2013-04-05 07:50:00,36.2,33.3,30.19,East,99,0.0,1.0,89,0.00,,,0.00,Wunderground v.1.15,2013-04-05 12:50:00,
2013-04-05 07:55:00,36.7,33.5,30.19,East,99,0.0,1.0,88,0.00,,,0.00,Wunderground v.1.15,2013-04-05 12:55:00,
2013-04-05 08:05:00,37.2,34.0,30.19,East,100,0.0,1.0,88,0.00,,,0.00,Wunderground v.1.15,2013-04-05 13:05:00,
2013-04-05 08:10:00,38.0,34.8,30.19,ESE,118,0.0,1.0,88,0.00,,,0.00,Wunderground v.1.15,2013-04-05 13:10:00,
2013-04-05 08:15:00,38.9,35.4,30.19,SSE,158,0.0,1.0,87,0.00,,,0.00,Wunderground v.1.15,2013-04-05 13:15:00,
2013-04-05 08:25:00,40.8,36.3,30.20,SW,229,0.0,-999.0,84,0.00,,,0.00,Wunderground v.1.15,2013-04-05 13:25:00,
2013-04-05 08:30:00,41.7,36.9,30.20,SW,229,0.0,-999.0,83,0.00,,,0.00,Wunderground v.1.15,2013-04-05 13:30:00,
2013-04-05 08:35:00,42.5,37.4,30.20,SW,235,1.0,-999.0,82,0.00,,,0.00,Wunderground v.1.15,2013-04-05 13:35:00,
2013-04-05 08:45:00,43.5,37.7,30.20,SW,222,1.0,-999.0,80,0.00,,,0.00,Wunderground v.1.15,2013-04-05 13:45:00,
2013-04-05 08:50:00,44.0,37.9,30.21,SSW,194,1.0,-999.0,79,0.00,,,0.00,Wunderground v.1.15,2013-04-05 13:50:00,
2013-04-05 09:00:00,44.9,38.5,30.21,South,190,1.0,1.0,78,0.00,,,0.00,Wunderground v.1.15,2013-04-05 14:00:00,
2013-04-05 09:10:00,46.2,39.7,30.21,SSW,210,1.0,2.0,78,0.00,,,0.00,Wunderground v.1.15,2013-04-05 14:10:00,
2013-04-05 09:15:00,46.8,39.3,30.21,SW,215,1.0,2.0,75,0.00,,,0.00,Wunderground v.1.15,2013-04-05 14:15:00,
2013-04-05 09:20:00,47.3,40.1,30.21,SW,215,1.0,1.0,76,0.00,,,0.00,Wunderground v.1.15,2013-04-05 14:20:00,
2013-04-05 09:25:00,48.2,40.6,30.21,SSW,203,0.0,1.0,75,0.00,,,0.00,Wunderground v.1.15,2013-04-05 14:25:00,
2013-04-05 09:30:00,48.9,40.6,30.21,SSW,209,0.0,0.0,73,0.00,,,0.00,Wunderground v.1.15,2013-04-05 14:30:00,
2013-04-05 09:35:00,49.7,40.7,30.21,WSW,238,0.0,0.0,71,0.00,,,0.00,Wunderground v.1.15,2013-04-05 14:35:00,
2013-04-05 09:45:00,51.4,42.3,30.21,SSW,207,0.0,0.0,71,0.00,,,0.00,Wunderground v.1.15,2013-04-05 14:45:00,
2013-04-05 09:50:00,52.3,42.8,30.20,SSW,207,0.0,-999.0,70,0.00,,,0.00,Wunderground v.1.15,2013-04-05 14:50:00,
2013-04-05 10:00:00,53.3,41.8,30.21,SW,235,0.0,1.0,65,0.00,,,0.00,Wunderground v.1.15,2013-04-05 15:00:00,
2013-04-05 10:10:00,54.4,42.1,30.20,SSE,152,1.0,-999.0,63,0.00,,,0.00,Wunderground v.1.15,2013-04-05 15:10:00,
2013-04-05 10:15:00,54.8,41.2,30.21,SW,215,1.0,1.0,60,0.00,,,0.00,Wunderground v.1.15,2013-04-05 15:15:00,
2013-04-05 10:20:00,55.3,41.6,30.21,SSW,207,1.0,1.0,60,0.00,,,0.00,Wunderground v.1.15,2013-04-05 15:20:00,
2013-04-05 10:30:00,56.9,44.0,30.21,NW,322,0.0,-999.0,62,0.00,,,0.00,Wunderground v.1.15,2013-04-05 15:30:00,
2013-04-05 10:35:00,57.7,43.5,30.21,WSW,245,0.0,-999.0,59,0.00,,,0.00,Wunderground v.1.15,2013-04-05 15:35:00,
2013-04-05 10:40:00,58.0,42.4,30.21,SSW,210,1.0,-999.0,56,0.00,,,0.00,Wunderground v.1.15,2013-04-05 15:40:00,
2013-04-05 10:50:00,58.1,41.5,30.21,WNW,284,1.0,-999.0,54,0.00,,,0.00,Wunderground v.1.15,2013-04-05 15:50:00,
2013-04-05 10:55:00,58.3,41.7,30.22,West,260,2.0,3.0,54,0.00,,,0.00,Wunderground v.1.15,2013-04-05 15:55:00,
2013-04-05 11:05:00,58.8,41.7,30.22,WNW,295,2.0,2.0,53,0.00,,,0.00,Wunderground v.1.15,2013-04-05 16:05:00,
2013-04-05 11:10:00,59.4,39.1,30.22,North,8,2.0,2.0,47,0.00,,,0.00,Wunderground v.1.15,2013-04-05 16:10:00,
2013-04-05 11:15:00,59.0,40.9,30.21,ENE,65,2.0,2.0,51,0.00,,,0.00,Wunderground v.1.15,2013-04-05 16:15:00,
2013-04-05 11:20:00,59.6,41.9,30.21,NNW,342,2.0,2.0,52,0.00,,,0.00,Wunderground v.1.15,2013-04-05 16:20:00,
2013-04-05 11:30:00,60.1,41.4,30.20,NW,307,1.0,-999.0,50,0.00,,,0.00,Wunderground v.1.15,2013-04-05 16:30:00,
2013-04-05 11:40:00,60.4,40.6,30.20,NNE,33,2.0,-999.0,48,0.00,,,0.00,Wunderground v.1.15,2013-04-05 16:40:00,
2013-04-05 11:50:00,62.1,42.2,30.19,South,191,1.0,1.0,48,0.00,,,0.00,Wunderground v.1.15,2013-04-05 16:50:00,
2013-04-05 12:05:00,62.7,39.9,30.19,SW,218,3.0,-999.0,43,0.00,,,0.00,Wunderground v.1.15,2013-04-05 17:05:00,
2013-04-05 12:10:00,62.9,38.8,30.19,SSW,207,3.0,6.0,41,0.00,,,0.00,Wunderground v.1.15,2013-04-05 17:10:00,
2013-04-05 12:15:00,63.3,37.2,30.19,ESE,106,2.0,6.0,38,0.00,,,0.00,Wunderground v.1.15,2013-04-05 17:15:00,
2013-04-05 12:20:00,63.7,36.2,30.19,East,94,2.0,2.0,36,0.00,,,0.00,Wunderground v.1.15,2013-04-05 17:20:00,
2013-04-05 12:25:00,63.6,35.4,30.19,SE,143,2.0,-999.0,35,0.00,,,0.00,Wunderground v.1.15,2013-04-05 17:25:00,
2013-04-05 12:35:00,64.4,36.8,30.18,ESE,116,3.0,-999.0,36,0.00,,,0.00,Wunderground v.1.15,2013-04-05 17:35:00,
2013-04-05 12:45:00,64.9,35.8,30.18,ESE,108,3.0,-999.0,34,0.00,,,0.00,Wunderground v.1.15,2013-04-05 17:45:00,
2013-04-05 12:50:00,64.7,37.1,30.18,ENE,58,3.0,-999.0,36,0.00,,,0.00,Wunderground v.1.15,2013-04-05 17:50:00,
2013-04-05 12:55:00,64.7,36.4,30.17,ENE,77,3.0,-999.0,35,0.00,,,0.00,Wunderground v.1.15,2013-04-05 17:55:00,
2013-04-05 13:05:00,65.2,34.6,30.17,SW,229,2.0,2.0,32,0.00,,,0.00,Wunderground v.1.15,2013-04-05 18:05:00,
2013-04-05 13:10:00,65.6,34.9,30.17,SW,221,2.0,3.0,32,0.00,,,0.00,Wunderground v.1.15,2013-04-05 18:10:00,
2013-04-05 13:15:00,65.8,35.9,30.17,SSW,195,3.0,3.0,33,0.00,,,0.00,Wunderground v.1.15,2013-04-05 18:15:00,
2013-04-05 13:25:00,66.2,37.7,30.16,ESE,106,3.0,-999.0,35,0.00,,,0.00,Wunderground v.1.15,2013-04-05 18:25:00,
2013-04-05 13:30:00,66.3,35.5,30.16,ESE,122,2.0,-999.0,32,0.00,,,0.00,Wunderground v.1.15,2013-04-05 18:30:00,
2013-04-05 13:40:00,66.7,37.4,30.16,SW,236,3.0,-999.0,34,0.00,,,0.00,Wunderground v.1.15,2013-04-05 18:40:00,
2013-04-05 13:45:00,66.4,40.7,30.15,West,276,3.0,3.0,39,0.00,,,0.00,Wunderground v.1.15,2013-04-05 18:45:00,
2013-04-05 13:55:00,66.6,39.5,30.14,SW,232,2.0,3.0,37,0.00,,,0.00,Wunderground v.1.15,2013-04-05 18:55:00,
2013-04-05 14:00:00,66.8,43.0,30.14,SSW,212,3.0,5.0,42,0.00,,,0.00,Wunderground v.1.15,2013-04-05 19:00:00,
2013-04-05 14:10:00,67.1,37.0,30.14,SSW,206,3.0,7.0,33,0.00,,,0.00,Wunderground v.1.15,2013-04-05 19:10:00,
2013-04-05 14:15:00,66.9,36.1,30.13,ESE,108,4.0,7.0,32,0.00,,,0.00,Wunderground v.1.15,2013-04-05 19:15:00,
2013-04-05 14:20:00,67.5,42.3,30.13,SW,226,4.0,4.0,40,0.00,,,0.00,Wunderground v.1.15,2013-04-05 19:20:00,
2013-04-05 14:25:00,67.4,39.5,30.13,SSW,207,3.0,4.0,36,0.00,,,0.00,Wunderground v.1.15,2013-04-05 19:25:00,
2013-04-05 14:30:00,67.8,40.6,30.12,SW,225,3.0,4.0,37,0.00,,,0.00,Wunderground v.1.15,2013-04-05 19:30:00,
2013-04-05 14:40:00,67.5,41.7,30.11,SSW,202,5.0,-999.0,39,0.00,,,0.00,Wunderground v.1.15,2013-04-05 19:40:00,
2013-04-05 14:50:00,67.8,42.6,30.11,SSW,203,5.0,5.0,40,0.00,,,0.00,Wunderground v.1.15,2013-04-05 19:50:00,
2013-04-05 14:55:00,68.1,43.5,30.10,WSW,239,5.0,9.0,41,0.00,,,0.00,Wunderground v.1.15,2013-04-05 19:55:00,
2013-04-05 15:05:00,68.1,43.5,30.10,West,272,4.0,-999.0,41,0.00,,,0.00,Wunderground v.1.15,2013-04-05 20:05:00,
2013-04-05 15:20:00,68.4,41.1,30.09,WSW,253,4.0,9.0,37,0.00,,,0.00,Wunderground v.1.15,2013-04-05 20:20:00,
2013-04-05 15:25:00,68.5,39.0,30.09,South,190,3.0,9.0,34,0.00,,,0.00,Wunderground v.1.15,2013-04-05 20:25:00,
2013-04-05 15:30:00,68.9,38.6,30.09,West,264,3.0,9.0,33,0.00,,,0.00,Wunderground v.1.15,2013-04-05 20:30:00,
2013-04-05 15:35:00,68.8,38.5,30.08,SW,222,4.0,9.0,33,0.00,,,0.00,Wunderground v.1.15,2013-04-05 20:35:00,
2013-04-05 15:40:00,68.8,39.3,30.08,SW,222,4.0,4.0,34,0.00,,,0.00,Wunderground v.1.15,2013-04-05 20:40:00,
2013-04-05 15:45:00,68.9,39.4,30.08,South,187,5.0,6.0,34,0.00,,,0.00,Wunderground v.1.15,2013-04-05 20:45:00,
2013-04-05 15:55:00,69.3,39.7,30.07,SW,235,4.0,9.0,34,0.00,,,0.00,Wunderground v.1.15,2013-04-05 20:55:00,
2013-04-05 16:05:00,69.6,39.2,30.07,SSW,204,4.0,-999.0,33,0.00,,,0.00,Wunderground v.1.15,2013-04-05 21:05:00,
2013-04-05 16:15:00,69.5,41.4,30.06,SW,228,5.0,-999.0,36,0.00,,,0.00,Wunderground v.1.15,2013-04-05 21:15:00,
2013-04-05 16:30:00,69.6,40.0,30.06,WSW,238,5.0,9.0,34,0.00,,,0.00,Wunderground v.1.15,2013-04-05 21:30:00,
2013-04-05 16:35:00,69.7,40.8,30.05,SSW,211,5.0,9.0,35,0.00,,,0.00,Wunderground v.1.15,2013-04-05 21:35:00,
2013-04-05 16:45:00,70.0,39.6,30.05,SSW,195,5.0,5.0,33,0.00,,,0.00,Wunderground v.1.15,2013-04-05 21:45:00,
2013-04-05 16:50:00,70.0,40.3,30.05,SW,235,5.0,5.0,34,0.00,,,0.00,Wunderground v.1.15,2013-04-05 21:50:00,
2013-04-05 17:05:00,69.5,37.5,30.04,SSE,161,5.0,-999.0,31,0.00,,,0.00,Wunderground v.1.15,2013-04-05 22:05:00,
2013-04-05 17:10:00,69.2,38.1,30.04,SSW,210,7.0,-999.0,32,0.00,,,0.00,Wunderground v.1.15,2013-04-05 22:10:00,
2013-04-05 17:20:00,69.1,40.3,30.04,SSW,205,6.0,-999.0,35,0.00,,,0.00,Wunderground v.1.15,2013-04-05 22:20:00,
2013-04-05 17:30:00,68.8,38.5,30.04,SSW,210,6.0,-999.0,33,0.00,,,0.00,Wunderground v.1.15,2013-04-05 22:30:00,
2013-04-05 17:45:00,68.6,39.8,30.03,SW,225,6.0,-999.0,35,0.00,,,0.00,Wunderground v.1.15,2013-04-05 22:45:00,
2013-04-05 18:05:00,67.6,41.1,30.04,SSW,207,6.0,8.0,38,0.00,,,0.00,Wunderground v.1.15,2013-04-05 23:05:00,
2013-04-05 18:10:00,67.2,39.3,30.04,SW,219,6.0,6.0,36,0.00,,,0.00,Wunderground v.1.15,2013-04-05 23:10:00,
2013-04-05 18:15:00,66.3,38.5,30.04,SW,224,5.0,7.0,36,0.00,,,0.00,Wunderground v.1.15,2013-04-05 23:15:00,
2013-04-05 18:20:00,65.6,37.9,30.04,SSW,212,5.0,7.0,36,0.00,,,0.00,Wunderground v.1.15,2013-04-05 23:20:00,
2013-04-05 18:25:00,65.3,39.0,30.04,SW,229,5.0,7.0,38,0.00,,,0.00,Wunderground v.1.15,2013-04-05 23:25:00,
2013-04-05 18:30:00,65.1,38.2,30.04,SSW,212,5.0,5.0,37,0.00,,,0.00,Wunderground v.1.15,2013-04-05 23:30:00,
2013-04-05 18:40:00,64.6,39.7,30.04,SSW,203,4.0,-999.0,40,0.00,,,0.00,Wunderground v.1.15,2013-04-05 23:40:00,
2013-04-05 18:45:00,64.5,37.6,30.04,SW,233,5.0,5.0,37,0.00,,,0.00,Wunderground v.1.15,2013-04-05 23:45:00,
2013-04-05 18:50:00,64.1,38.0,30.04,SW,229,6.0,6.0,38,0.00,,,0.00,Wunderground v.1.15,2013-04-05 23:50:00,
2013-04-05 19:05:00,62.8,38.7,30.04,SSW,212,4.0,-999.0,41,0.00,,,0.00,Wunderground v.1.15,2013-04-06 00:05:00,
2013-04-05 19:10:00,62.5,37.8,30.03,SSW,204,4.0,-999.0,40,0.00,,,0.00,Wunderground v.1.15,2013-04-06 00:10:00,
2013-04-05 19:15:00,62.1,38.7,30.03,SSW,195,4.0,-999.0,42,0.00,,,0.00,Wunderground v.1.15,2013-04-06 00:15:00,
2013-04-05 19:25:00,61.3,38.0,30.03,SSW,203,4.0,-999.0,42,0.00,,,0.00,Wunderground v.1.15,2013-04-06 00:25:00,
2013-04-05 19:30:00,60.9,37.6,30.03,South,191,4.0,-999.0,42,0.00,,,0.00,Wunderground v.1.15,2013-04-06 00:30:00,
2013-04-05 19:35:00,60.6,36.8,30.03,SSW,207,3.0,-999.0,41,0.00,,,0.00,Wunderground v.1.15,2013-04-06 00:35:00,
2013-04-05 19:40:00,60.4,37.2,30.03,SSW,193,4.0,-999.0,42,0.00,,,0.00,Wunderground v.1.15,2013-04-06 00:40:00,
2013-04-05 19:45:00,59.8,36.6,30.03,SSW,195,4.0,-999.0,42,0.00,,,0.00,Wunderground v.1.15,2013-04-06 00:45:00,
2013-04-05 19:50:00,59.5,35.8,30.03,SSW,201,4.0,-999.0,41,0.00,,,0.00,Wunderground v.1.15,2013-04-06 00:50:00,
2013-04-05 19:55:00,59.4,36.3,30.03,SSE,166,3.0,-999.0,42,0.00,,,0.00,Wunderground v.1.15,2013-04-06 00:55:00,
2013-04-05 20:00:00,59.2,36.1,30.03,South,187,3.0,3.0,42,0.00,,,0.00,Wunderground v.1.15,2013-04-06 01:00:00,
2013-04-05 20:10:00,58.8,35.7,30.03,South,191,2.0,-999.0,42,0.00,,,0.00,Wunderground v.1.15,2013-04-06 01:10:00,
2013-04-05 20:15:00,58.5,34.9,30.02,SE,146,2.0,-999.0,41,0.00,,,0.00,Wunderground v.1.15,2013-04-06 01:15:00,
2013-04-05 20:20:00,58.3,35.3,30.02,SE,133,1.0,-999.0,42,0.00,,,0.00,Wunderground v.1.15,2013-04-06 01:20:00,
2013-04-05 20:25:00,58.0,35.0,30.02,SSE,160,1.0,-999.0,42,0.00,,,0.00,Wunderground v.1.15,2013-04-06 01:25:00,
2013-04-05 20:30:00,57.7,34.7,30.02,SE,131,1.0,-999.0,42,0.00,,,0.00,Wunderground v.1.15,2013-04-06 01:30:00,
2013-04-05 20:40:00,56.8,35.1,30.02,ESE,123,1.0,-999.0,44,0.00,,,0.00,Wunderground v.1.15,2013-04-06 01:40:00,
2013-04-05 20:45:00,56.9,35.2,30.01,SE,136,2.0,-999.0,44,0.00,,,0.00,Wunderground v.1.15,2013-04-06 01:45:00,
2013-04-05 20:50:00,56.8,35.7,30.01,ESE,119,2.0,-999.0,45,0.00,,,0.00,Wunderground v.1.15,2013-04-06 01:50:00,
2013-04-05 21:00:00,56.6,36.0,30.01,SE,128,2.0,3.0,46,0.00,,,0.00,Wunderground v.1.15,2013-04-06 02:00:00,
2013-04-05 21:10:00,57.2,36.6,30.01,SE,136,3.0,3.0,46,0.00,,,0.00,Wunderground v.1.15,2013-04-06 02:10:00,
2013-04-05 21:15:00,57.2,36.6,30.01,SW,218,2.0,3.0,46,0.00,,,0.00,Wunderground v.1.15,2013-04-06 02:15:00,
2013-04-05 21:25:00,57.1,36.5,30.01,SE,131,2.0,-999.0,46,0.00,,,0.00,Wunderground v.1.15,2013-04-06 02:25:00,
2013-04-05 21:30:00,57.1,35.9,30.02,SE,133,2.0,-999.0,45,0.00,,,0.00,Wunderground v.1.15,2013-04-06 02:30:00,
2013-04-05 21:45:00,56.9,36.3,30.02,ESE,116,2.0,-999.0,46,0.00,,,0.00,Wunderground v.1.15,2013-04-06 02:45:00,
2013-04-05 21:50:00,56.7,36.7,30.02,SE,127,1.0,-999.0,47,0.00,,,0.00,Wunderground v.1.15,2013-04-06 02:50:00,
2013-04-05 21:55:00,56.3,36.3,30.02,SE,126,1.0,-999.0,47,0.00,,,0.00,Wunderground v.1.15,2013-04-06 02:55:00,
2013-04-05 22:10:00,56.1,36.1,30.02,SSE,155,1.0,1.0,47,0.00,,,0.00,Wunderground v.1.15,2013-04-06 03:10:00,
2013-04-05 22:15:00,56.1,36.1,30.01,SE,127,2.0,3.0,47,0.00,,,0.00,Wunderground v.1.15,2013-04-06 03:15:00,
2013-04-05 22:20:00,56.1,36.1,30.01,SE,135,2.0,3.0,47,0.00,,,0.00,Wunderground v.1.15,2013-04-06 03:20:00,
2013-04-05 22:30:00,56.5,36.0,30.01,SSE,158,3.0,3.0,46,0.00,,,0.00,Wunderground v.1.15,2013-04-06 03:30:00,
2013-04-05 22:35:00,56.9,36.3,30.01,SSE,165,4.0,4.0,46,0.00,,,0.00,Wunderground v.1.15,2013-04-06 03:35:00,
2013-04-05 22:45:00,57.2,35.5,30.00,SE,124,3.0,3.0,44,0.00,,,0.00,Wunderground v.1.15,2013-04-06 03:45:00,
2013-04-05 22:50:00,57.4,35.6,30.00,ESE,123,4.0,4.0,44,0.00,,,0.00,Wunderground v.1.15,2013-04-06 03:50:00,
2013-04-05 22:55:00,57.5,35.7,29.99,SSE,159,4.0,6.0,44,0.00,,,0.00,Wunderground v.1.15,2013-04-06 03:55:00,
2013-04-05 23:00:00,57.6,36.4,30.00,ESE,105,4.0,8.0,45,0.00,,,0.00,Wunderground v.1.15,2013-04-06 04:00:00,
2013-04-05 23:05:00,57.6,37.0,29.99,SSE,160,4.0,8.0,46,0.00,,,0.00,Wunderground v.1.15,2013-04-06 04:05:00,
2013-04-05 23:15:00,57.6,37.5,29.99,SE,131,3.0,7.0,47,0.00,,,0.00,Wunderground v.1.15,2013-04-06 04:15:00,
2013-04-05 23:20:00,57.7,37.6,29.99,SE,131,4.0,6.0,47,0.00,,,0.00,Wunderground v.1.15,2013-04-06 04:20:00,
2013-04-05 23:30:00,57.8,37.7,29.99,SSE,158,5.0,5.0,47,0.00,,,0.00,Wunderground v.1.15,2013-04-06 04:30:00,
2013-04-05 23:40:00,58.0,37.9,29.99,SE,126,5.0,-999.0,47,0.00,,,0.00,Wunderground v.1.15,2013-04-06 04:40:00,
2013-04-05 23:50:00,58.3,38.1,29.99,South,181,4.0,7.0,47,0.00,,,0.00,Wunderground v.1.15,2013-04-06 04:50:00,
2013-04-05 23:55:00,58.4,37.7,29.99,South,190,5.0,7.0,46,0.00,,,0.00,Wunderground v.1.15,2013-04-06 04:55:00,